Chattanooga, TN

9:37 PM EDT on July 23, 2017 (GMT -0400)
Lovell

Weather History for KCHA - September, 2011

Change the Weather History Date:

Sunday, September 4, 2011

  Actual Average Record
Temperature  
Mean Temperature 79 °F 76 °F  
Max Temperature 86 °F 87 °F 102 °F (1954)
Min Temperature 72 °F 66 °F 51 °F (1952)
Degree Days  
Heating Degree Days 0 0  
Month to date heating degree days 0 0  
Since 1 July heating degree days 0 0  
Cooling Degree Days 14 11  
Month to date cooling degree days 75 47  
Year to date cooling degree days 1984 1497  
Growing Degree Days 30 (Base 50)    
Moisture  
Dew Point 67 °F    
Average Humidity 69    
Maximum Humidity 87    
Minimum Humidity 51    
Precipitation  
Precipitation 0.01 in 0.11 in 2.99 in (1986)
Month to date precipitation 0.31 0.47  
Year to date precipitation 36.88 35.73  
Snow  
Snow 0.00 in - - ()
Month to date snowfall 0.0  
Snow Depth 0.00 in    
Sea Level Pressure  
Sea Level Pressure 29.88 in    
Wind  
Wind Speed 3 mph (SSE)    
Max Wind Speed 16 mph    
Max Gust Speed 22 mph    
Visibility 10 miles    
Events Rain    
T = Trace of Precipitation, MM = Missing Value Source: NWS Daily Summary

Daily Weather History Graph

Daily Weather History Graph

Search for Another Location

Airport or City:

Trip Planner

Search our weather history database for the weather conditions in past years. The results will help you decide how hot, cold, wet, or windy it might be!

Date:

Astronomy

Sep. 04, 2011 Rise Set
Actual Time 7:15 AM EDT 8:03 PM EDT
Civil Twilight 6:49 AM EDT 8:29 PM EDT
Nautical Twilight 6:19 AM EDT 8:59 PM EDT
Astronomical Twilight 5:47 AM EDT 9:30 PM EDT
Moon 2:39 PM EDT (9/4) No Moon Set
Length of Visible Light 13h 39m
Length of Day
12h 48m
Waxing Crescent, 49% of the Moon is Illuminated
Sep 4
Waxing Crescent
Sep 4
First Quarter
Sep 12
Full
Sep 20
Last Quarter
Sep 27
New

Hourly Weather History & Observations

Time (EDT) Temp. Heat Index Dew Point Humidity Pressure Visibility Wind Dir Wind Speed Gust Speed Precip Events Conditions
12:53 AM 77.0 °F - 69.1 °F 76% 29.89 in 10.0 mi Calm Calm - N/A   Mostly Cloudy
1:53 AM 75.9 °F - 69.1 °F 79% 29.88 in 10.0 mi Calm Calm - N/A   Mostly Cloudy
2:53 AM 75.9 °F - 70.0 °F 82% 29.87 in 10.0 mi NE 3.5 mph - N/A   Scattered Clouds
3:53 AM 75.9 °F - 68.0 °F 76% 29.87 in 10.0 mi Calm Calm - N/A   Mostly Cloudy
4:53 AM 75.0 °F - 68.0 °F 79% 29.88 in 10.0 mi Calm Calm - N/A   Mostly Cloudy
5:53 AM 75.0 °F - 68.0 °F 79% 29.87 in 10.0 mi Calm Calm - N/A   Mostly Cloudy
6:53 AM 73.9 °F - 69.1 °F 85% 29.89 in 10.0 mi Calm Calm - N/A   Mostly Cloudy
7:53 AM 73.9 °F - 69.1 °F 85% 29.91 in 10.0 mi Calm Calm - N/A   Mostly Cloudy
8:53 AM 75.0 °F - 68.0 °F 79% 29.91 in 10.0 mi Calm Calm - N/A   Mostly Cloudy
9:53 AM 79.0 °F - 68.0 °F 69% 29.91 in 10.0 mi Calm Calm - N/A   Mostly Cloudy
10:53 AM 81.0 °F 83.0 °F 66.0 °F 60% 29.91 in 10.0 mi Calm Calm - N/A   Mostly Cloudy
11:53 AM 84.0 °F 86.3 °F 66.0 °F 55% 29.90 in 10.0 mi SSE 5.8 mph - N/A   Mostly Cloudy
12:53 PM 84.9 °F 87.1 °F 66.0 °F 53% 29.90 in 10.0 mi ESE 4.6 mph - N/A   Overcast
1:53 PM 86.0 °F 88.2 °F 66.0 °F 51% 29.88 in 10.0 mi Variable 6.9 mph - N/A   Overcast
2:53 PM 80.1 °F 81.5 °F 63.0 °F 56% 29.88 in 9.0 mi SE 8.1 mph - N/A   Overcast
3:53 PM 80.1 °F 82.7 °F 68.0 °F 67% 29.85 in 7.0 mi Calm Calm - 0.00 in   Overcast
4:53 PM 82.9 °F 85.0 °F 66.0 °F 56% 29.84 in 8.0 mi South 11.5 mph - N/A   Overcast
5:53 PM 79.0 °F - 64.0 °F 60% 29.83 in 10.0 mi SW 10.4 mph - 0.00 in Rain Light Rain
6:53 PM 77.0 °F - 62.1 °F 60% 29.85 in 10.0 mi SW 5.8 mph - 0.00 in Rain Light Rain
7:53 PM 75.9 °F - 63.0 °F 64% 29.86 in 10.0 mi SW 4.6 mph - 0.00 in   Overcast
8:53 PM 73.9 °F - 66.0 °F 76% 29.86 in 7.0 mi Calm Calm - 0.00 in   Overcast
9:53 PM 73.0 °F - 66.9 °F 81% 29.86 in 7.0 mi North 3.5 mph - 0.01 in   Overcast
10:53 PM 73.0 °F - 66.0 °F 79% 29.86 in 10.0 mi Calm Calm - N/A   Overcast
11:53 PM 73.0 °F - 66.0 °F 79% 29.85 in 10.0 mi ENE 3.5 mph - N/A   Overcast